Regional Weather Roundup
Issued by NWS Green Bay, WI

Home | Current Version | Previous Version | Text Only | Print | Product List | Glossary On
Versions: 1 2 3 4 5 6 7 8 9 10 11 12 13 14 15 16 17 18 19 20 21 22 23 24 25 26 27 28 29 30 31 32 33 34 35 36 37 38 39 40 41 42 43 44 45 46 47 48 49 50
000
ASUS43 KGRB 241359
RWRGRB

NORTH-CENTRAL AND NORTHEAST WISCONSIN REGIONAL WEATHER ROUNDUP
NATIONAL WEATHER SERVICE GREEN BAY WI
900 AM CDT FRI OCT 24 2014

WIZ005-009-010>012-018-019-241500-
NORTH CENTRAL WISCONSIN

CITY           SKY/WX    TMP DP  RH WIND       PRES   REMARKS
IRONWOOD       CLOUDY    48  46  93 S12       29.89F
MANITOWISH WTR NOT AVBL
ARBOR VITAE    NOT AVBL
EAGLE RIVER    NOT AVBL
LAND O LAKES   NOT AVBL
RHINELANDER    FOG       43  43 100 S6        29.99S VSB 1/4
PHILLIPS       NOT AVBL
ANTIGO         NOT AVBL
TOMAHAWK       NOT AVBL
MERRILL        NOT AVBL
$$

WIZ013-073-241500-
NORTHEAST WISCONSIN

CITY           SKY/WX    TMP DP  RH WIND       PRES   REMARKS
IRON MOUNTAIN  FOG       43  42  97 S3        29.98S VSB 3/4
MARINETTE      CLOUDY    46  45  93 SW9       29.99F
$$

WIZ017-030-035>037-045-241500-
CENTRAL WISCONSIN

CITY           SKY/WX    TMP DP  RH WIND       PRES   REMARKS
MEDFORD        NOT AVBL
WAUSAU         FOG       45  45 100 S3        30.00R VSB 1/4
MOSINEE        FOG       45  45 100 CALM      30.01S VSB 1/8
MARSHFIELD     FOG       46  45  96 S6        30.00R VSB<1/4
WISC RAPIDS    FOG       46  46 100 S6        30.03S VSB 1/4
STEVENS POINT  NOT AVBL
WAUPACA        NOT AVBL
SHAWANO        NOT AVBL
CLINTONVILLE   NOT AVBL
$$

WIZ038-039-048-051-241500-
FOX VALLEY

CITY           SKY/WX    TMP DP  RH WIND       PRES   REMARKS
NWS GREEN BAY  CLOUDY    48  47  96 W6        30.02F FOG
APPLETON         N/A     46  46 100 VRB6      30.03S FOG
OSHKOSH        CLOUDY    48  47  96 CALM      30.03S FOG
FOND DU LAC    CLOUDY    48  46  93 SW5       30.04S
$$

WIZ022-050-052-241500-
EAST CENTRAL WISCONSIN

CITY           SKY/WX    TMP DP  RH WIND       PRES   REMARKS
STURGEON BAY   CLOUDY    48  45  87 SW8       30.01F
MANITOWOC      NOT AVBL
SHEBOYGAN      CLOUDY    49  46  90 W6        30.04S
$$

LMZ563-521-522-541>543-241500-
LAKESHORE

STATION/POSITION TIME  TEMP    WIND        PRES    VSBY  WAVE
                       AIR SEA DIR/SP/G                  HT/PER
                 (UTC) (F)     (DEG/KT/KT) (MB)    (MI)  (FT/S)
SHEBOYGAN LKSHOR 1300   49 50  280/  6/  8 1017.8R
KEWAUNEE LKSHORE 1300   49     240/  3/  5 1015.8R
NORTHPORT PIER   1300   49      CALM  /  2 1015.9S
N MID LAKE BUOY  1300   50 51  230/  8/ 10 1016.2R         2/ 5
SISTER BAY LKSHO 1300          280/  8/  9   N/A
CHAMBERS ISLAND  1300   48     210/  4/  8 1016.6R
MENOMINEE LKSHOR 1300   47     220/  5/  9 1016.6S
$$



USA.gov is the U.S. government's official web portal to all federal, state and local government web resources and services.